Montoursville, PA

9:29 AM EST on December 04, 2016 (GMT -0500)
Williamsport Rgnl

Weather History for KIPT - June, 2013

Change the Weather History Date:

Saturday, June 29, 2013

  Actual Average Record
Temperature  
Mean Temperature 73 °F 72 °F  
Max Temperature 84 °F 83 °F 101 °F (1934)
Min Temperature 62 °F 61 °F 45 °F (1930)
Degree Days  
Heating Degree Days 0 0  
Month to date heating degree days 9 36  
Since 1 June heating degree days 9 36  
Since 1 July heating degree days 5669 5994  
Cooling Degree Days 8 7  
Month to date cooling degree days 151 140  
Year to date cooling degree days 222 183  
Since 1 June cooling degree days 151 140  
Growing Degree Days 23 (Base 50)    
Moisture  
Dew Point 61 °F    
Average Humidity 67    
Maximum Humidity 93    
Minimum Humidity 40    
Precipitation  
Precipitation 0.00 in 0.13 in 1.92 in (2008)
Month to date precipitation 4.16 3.79  
Year to date precipitation 16.73 18.70  
Sea Level Pressure  
Sea Level Pressure 29.57 in    
Wind  
Wind Speed 4 mph (West)    
Max Wind Speed 14 mph    
Max Gust Speed 18 mph    
Visibility 9 miles    
Events      
T = Trace of Precipitation, MM = Missing Value Source: NWS Daily Summary

Daily Weather History Graph

Daily Weather History Graph

Search for Another Location

Airport or City:

Trip Planner

Search our weather history database for the weather conditions in past years. The results will help you decide how hot, cold, wet, or windy it might be!

Date:

Astronomy

Jun. 29, 2013 Rise Set
Actual Time 5:37 AM EDT 8:44 PM EDT
Civil Twilight 5:03 AM EDT 9:18 PM EDT
Nautical Twilight 4:20 AM EDT 10:01 PM EDT
Astronomical Twilight 3:29 AM EDT 10:52 PM EDT
Moon 12:08 AM EDT (6/29) 12:51 PM EDT (6/29)
Length of Visible Light 16h 14m
Length of Day
15h 07m
Waning Gibbous, 56% of the Moon is Illuminated
Jun 29
Waning Gibbous
Jun 30
Last Quarter
Jul 8
New
Jul 15
First Quarter
Jul 22
Full

Hourly Weather History & Observations

Time (EDT) Temp. Heat Index Dew Point Humidity Pressure Visibility Wind Dir Wind Speed Gust Speed Precip Events Conditions
12:12 AM 64.4 °F - 62.6 °F 94% 29.54 in 10.0 mi Calm Calm - N/A   Overcast
12:54 AM 64.0 °F - 62.1 °F 93% 29.52 in 10.0 mi Calm Calm - N/A   Overcast
1:54 AM 63.0 °F - 61.0 °F 93% 29.52 in 10.0 mi Calm Calm - N/A   Mostly Cloudy
2:26 AM 62.6 °F - 60.8 °F 94% 29.52 in 7.0 mi Calm Calm - N/A   Overcast
2:49 AM 62.6 °F - 60.8 °F 94% 29.51 in 8.0 mi Calm Calm - N/A   Overcast
2:54 AM 63.0 °F - 61.0 °F 93% 29.51 in 8.0 mi Calm Calm - N/A   Mostly Cloudy
3:13 AM 62.6 °F - 60.8 °F 94% 29.52 in 7.0 mi Calm Calm - N/A   Scattered Clouds
3:25 AM 62.6 °F - 60.8 °F 94% 29.50 in 6.0 mi NW 3.5 mph - N/A   Mostly Cloudy
3:41 AM 62.6 °F - 60.8 °F 94% 29.51 in 8.0 mi WNW 3.5 mph - N/A   Scattered Clouds
3:54 AM 62.1 °F - 60.1 °F 93% 29.50 in 9.0 mi WNW 3.5 mph - N/A   Partly Cloudy
4:25 AM 62.6 °F - 60.8 °F 94% 29.53 in 9.0 mi WNW 6.9 mph - N/A   Mostly Cloudy
4:54 AM 63.0 °F - 60.1 °F 90% 29.53 in 10.0 mi NW 3.5 mph - N/A   Overcast
5:54 AM 63.0 °F - 60.1 °F 90% 29.55 in 6.0 mi Calm Calm - N/A   Scattered Clouds
6:28 AM 64.4 °F - 60.8 °F 88% 29.56 in 8.0 mi Calm Calm - N/A   Mostly Cloudy
6:54 AM 64.0 °F - 60.1 °F 87% 29.56 in 7.0 mi East 3.5 mph - N/A   Overcast
7:49 AM 66.2 °F - 60.8 °F 83% 29.57 in 8.0 mi NE 4.6 mph - N/A   Partly Cloudy
7:54 AM 66.9 °F - 62.1 °F 84% 29.57 in 8.0 mi NE 4.6 mph - N/A   Partly Cloudy
8:54 AM 70.0 °F - 62.1 °F 76% 29.57 in 10.0 mi East 4.6 mph - N/A   Partly Cloudy
9:54 AM 70.0 °F - 61.0 °F 73% 29.58 in 10.0 mi Calm Calm - N/A   Overcast
10:54 AM 73.0 °F - 60.1 °F 64% 29.58 in 10.0 mi WSW 3.5 mph - N/A   Overcast
11:54 AM 77.0 °F - 60.1 °F 56% 29.57 in 10.0 mi Variable 6.9 mph - N/A   Mostly Cloudy
12:54 PM 77.0 °F - 59.0 °F 54% 29.57 in 10.0 mi Variable 3.5 mph - N/A   Scattered Clouds
1:54 PM 81.0 °F 81.6 °F 60.1 °F 49% 29.57 in 10.0 mi WSW 5.8 mph - N/A   Scattered Clouds
2:54 PM 81.0 °F 81.3 °F 59.0 °F 47% 29.56 in 10.0 mi West 8.1 mph - N/A   Scattered Clouds
3:54 PM 82.0 °F 82.4 °F 60.1 °F 47% 29.57 in 10.0 mi WSW 8.1 mph - N/A   Mostly Cloudy
4:54 PM 84.0 °F 83.5 °F 57.9 °F 41% 29.57 in 10.0 mi WSW 9.2 mph - N/A   Mostly Cloudy
5:54 PM 82.0 °F 82.4 °F 60.1 °F 47% 29.57 in 10.0 mi South 8.1 mph - N/A   Mostly Cloudy
6:54 PM 79.0 °F - 61.0 °F 54% 29.60 in 10.0 mi SSW 10.4 mph - N/A   Partly Cloudy
7:54 PM 77.0 °F - 59.0 °F 54% 29.62 in 10.0 mi West 4.6 mph - N/A   Clear
8:54 PM 73.9 °F - 60.1 °F 62% 29.65 in 10.0 mi East 4.6 mph - N/A   Clear
9:54 PM 71.1 °F - 62.1 °F 73% 29.68 in 10.0 mi North 4.6 mph - N/A   Clear
10:54 PM 66.9 °F - 62.1 °F 84% 29.68 in 10.0 mi Calm Calm - N/A   Clear
11:54 PM 68.0 °F - 63.0 °F 84% 29.69 in 10.0 mi Calm Calm - N/A   Overcast